Location: Dana
(41.8364°N, 106.7042°W)
Time: 13:53:51
(UTC+00:00)

Injun/Solrad 3 - Pass Details

Date: 18 May 2026
Orbit: 867 x 989 km, 66.8° (Epoch: 7 June)

Event Time Altitude Azimuth Distance (km) Brightness Sun altitude
Rises 21:10:50 0° 191° (S) 3,494 11.2 55.1°
Reaches altitude 10° 21:13:22 10° 185° (S) 2,575 10.6 54.7°
Maximum altitude 21:19:05 49° 113° (ESE) 1,181 8.8 53.8°
Drops below altitude 10° 21:25:01 10° 40° (NE) 2,673 10.1 52.8°
Sets 21:27:41 0° 35° (NE) 3,640 10.7 52.3°
